Volver al catálogo

COSMOS 2251 DEB

ActivoVLEO
NORAD 33818·DEBRIS·🇷🇺 Russia

Lanzado Jun 16, 1993 desde Plesetsk Cosmodrome

Loading…

Próximos Pases (próximas 24 horas)

TLE

ActualizadoSource: Space-Track

Época: Sep 14, 2026, 12:01 UTC

1 33818U 93036BK  26257.50131315  .00107460  00000-0  19011-2 0  9997
2 33818  74.0673 301.5258 0009737 266.0163  93.9937 15.49798087940771

Sigue COSMOS 2251 DEB en tiempo real con AllMySat

Download on the App Store